UMKA 1 (RS40S)

Last updated on Sun Aug 09 2026 00:03:15 GMT+0000 (Coordinated Universal Time)

1 57172U 23091G 26220.58947467 .00002848 00000+0 13011-3 0 9999 2 57172 97.5016 279.0932 0010897 299.9729 60.0424 15.21354110171970
UTC large
Height (km)
Speed (km/s)
/
Latitude / Longitude
Inclination (degrees)
Orbital Period (minutes)
Azimuth
Elevation
Range (km)
Doppler Factor

Next 0 passes for location: London (51.5072 / 0.1276)

No passes found over London.
UMKA 1 (RS40S)